Time,TemperatureF,DewpointF,PressureIn,WindDirection,WindDirectionDegrees,WindSpeedMPH,WindSpeedGustMPH,Humidity,HourlyPrecipIn,Conditions,Clouds,dailyrainin,SoftwareType,DateUTC
2013-01-05 00:12:00,12.4,11.0,30.15,SE,127,1.0,1.0,93,0.00,,,0.00,weatherlink.com 1.10,2013-01-05 06:12:00,
2013-01-05 00:42:00,13.2,12.0,30.14,SE,143,1.0,2.0,93,0.00,,,0.00,weatherlink.com 1.10,2013-01-05 06:42:00,
2013-01-05 00:57:00,12.4,10.0,30.13,SSE,153,4.0,4.0,91,0.00,,,0.00,weatherlink.com 1.10,2013-01-05 06:57:00,
2013-01-05 01:12:00,10.8,9.0,30.13,SE,134,3.0,5.0,90,0.00,,,0.00,weatherlink.com 1.10,2013-01-05 07:12:00,
2013-01-05 01:27:00,10.5,8.0,30.12,SSW,207,3.0,5.0,91,0.00,,,0.00,weatherlink.com 1.10,2013-01-05 07:27:00,
2013-01-05 01:42:00,9.5,7.0,30.13,SW,233,0.0,4.0,91,0.00,,,0.00,weatherlink.com 1.10,2013-01-05 07:42:00,
2013-01-05 01:57:00,9.7,8.0,30.13,East,101,4.0,4.0,92,0.00,,,0.00,weatherlink.com 1.10,2013-01-05 07:57:00,
2013-01-05 02:12:00,11.3,10.0,30.12,ESE,105,1.0,6.0,93,0.00,,,0.00,weatherlink.com 1.10,2013-01-05 08:12:00,
2013-01-05 02:27:00,11.3,10.0,30.12,ENE,63,2.0,3.0,92,0.00,,,0.00,weatherlink.com 1.10,2013-01-05 08:27:00,
2013-01-05 02:42:00,10.3,8.0,30.12,ENE,60,2.0,3.0,91,0.00,,,0.00,weatherlink.com 1.10,2013-01-05 08:42:00,
2013-01-05 02:57:00,9.5,8.0,30.12,ENE,68,1.0,3.0,92,0.00,,,0.00,weatherlink.com 1.10,2013-01-05 08:57:00,
2013-01-05 03:12:00,10.1,8.0,30.12,ESE,115,0.0,2.0,92,0.00,,,0.00,weatherlink.com 1.10,2013-01-05 09:12:00,
2013-01-05 03:27:00,-999.0,-99.9,30.11,North,-999,-999.0,-999.0,-999,0.00,,,0.00,weatherlink.com 1.10,2013-01-05 09:27:00,
2013-01-05 03:42:00,-999.0,-99.9,30.09,North,-999,-999.0,-999.0,-999,0.00,,,0.00,weatherlink.com 1.10,2013-01-05 09:42:00,
2013-01-05 03:57:00,-999.0,-99.9,30.09,North,-999,-999.0,-999.0,-999,0.00,,,0.00,weatherlink.com 1.10,2013-01-05 09:57:00,
2013-01-05 04:12:00,-999.0,-99.9,30.07,North,-999,-999.0,-999.0,-999,0.00,,,0.00,weatherlink.com 1.10,2013-01-05 10:12:00,
2013-01-05 04:27:00,-999.0,-99.9,30.07,North,-999,-999.0,-999.0,-999,0.00,,,0.00,weatherlink.com 1.10,2013-01-05 10:27:00,
2013-01-05 04:42:00,-999.0,-99.9,30.06,North,-999,-999.0,-999.0,-999,0.00,,,0.00,weatherlink.com 1.10,2013-01-05 10:42:00,
2013-01-05 04:58:00,-999.0,-99.9,30.05,North,-999,-999.0,-999.0,-999,0.00,,,0.00,weatherlink.com 1.10,2013-01-05 10:58:00,
2013-01-05 05:13:00,-999.0,-99.9,30.05,North,-999,-999.0,-999.0,-999,0.00,,,0.00,weatherlink.com 1.10,2013-01-05 11:13:00,
2013-01-05 05:28:00,-999.0,-99.9,30.05,North,-999,-999.0,-999.0,-999,0.00,,,0.00,weatherlink.com 1.10,2013-01-05 11:28:00,
2013-01-05 05:43:00,-999.0,-99.9,30.05,North,-999,-999.0,-999.0,-999,0.00,,,0.00,weatherlink.com 1.10,2013-01-05 11:43:00,
2013-01-05 05:58:00,-999.0,-99.9,30.04,North,-999,-999.0,-999.0,-999,0.00,,,0.00,weatherlink.com 1.10,2013-01-05 11:58:00,
2013-01-05 06:13:00,-999.0,-99.9,30.04,North,-999,-999.0,-999.0,-999,0.00,,,0.00,weatherlink.com 1.10,2013-01-05 12:13:00,
2013-01-05 06:28:00,-999.0,-99.9,30.02,North,-999,-999.0,-999.0,-999,0.00,,,0.00,weatherlink.com 1.10,2013-01-05 12:28:00,
2013-01-05 06:43:00,-999.0,-99.9,30.02,North,-999,-999.0,-999.0,-999,0.00,,,0.00,weatherlink.com 1.10,2013-01-05 12:43:00,
2013-01-05 06:58:00,-999.0,-99.9,30.02,North,-999,-999.0,-999.0,-999,0.00,,,0.00,weatherlink.com 1.10,2013-01-05 12:58:00,
2013-01-05 07:13:00,-999.0,-99.9,30.02,North,-999,-999.0,-999.0,-999,0.00,,,0.00,weatherlink.com 1.10,2013-01-05 13:13:00,
2013-01-05 07:28:00,-999.0,-99.9,30.02,North,-999,-999.0,-999.0,-999,0.00,,,0.00,weatherlink.com 1.10,2013-01-05 13:28:00,
2013-01-05 07:43:00,-999.0,-99.9,30.02,North,-999,-999.0,-999.0,-999,0.00,,,0.00,weatherlink.com 1.10,2013-01-05 13:43:00,
2013-01-05 07:58:00,-999.0,-99.9,30.01,North,-999,-999.0,-999.0,-999,0.00,,,0.00,weatherlink.com 1.10,2013-01-05 13:58:00,
2013-01-05 08:13:00,-999.0,-99.9,30.01,North,-999,-999.0,-999.0,-999,0.00,,,0.00,weatherlink.com 1.10,2013-01-05 14:13:00,
2013-01-05 08:28:00,-999.0,-99.9,30.00,North,-999,-999.0,-999.0,-999,0.00,,,0.00,weatherlink.com 1.10,2013-01-05 14:28:00,
2013-01-05 08:44:00,-999.0,-99.9,30.00,North,-999,-999.0,-999.0,-999,0.00,,,0.00,weatherlink.com 1.10,2013-01-05 14:44:00,
2013-01-05 08:59:00,-999.0,-99.9,30.00,North,-999,-999.0,-999.0,-999,0.00,,,0.00,weatherlink.com 1.10,2013-01-05 14:59:00,
2013-01-05 09:14:00,-999.0,-99.9,30.00,North,-999,-999.0,-999.0,-999,0.00,,,0.00,weatherlink.com 1.10,2013-01-05 15:14:00,
2013-01-05 09:29:00,-999.0,-99.9,30.00,North,-999,-999.0,-999.0,-999,0.00,,,0.00,weatherlink.com 1.10,2013-01-05 15:29:00,
2013-01-05 09:44:00,9.5,7.0,30.00,WSW,249,4.0,4.0,89,0.00,,,0.00,weatherlink.com 1.10,2013-01-05 15:44:00,
2013-01-05 09:59:00,10.4,8.0,30.00,SW,233,2.0,5.0,90,0.00,,,0.00,weatherlink.com 1.10,2013-01-05 15:59:00,
2013-01-05 10:14:00,11.0,8.0,30.00,SW,226,1.0,4.0,89,0.00,,,0.00,weatherlink.com 1.10,2013-01-05 16:14:00,
2013-01-05 10:29:00,10.8,8.0,30.00,WSW,243,3.0,4.0,88,0.00,,,0.00,weatherlink.com 1.10,2013-01-05 16:29:00,
2013-01-05 10:44:00,11.1,8.0,30.00,WSW,239,2.0,4.0,88,0.00,,,0.00,weatherlink.com 1.10,2013-01-05 16:44:00,
2013-01-05 10:59:00,11.7,9.0,30.00,WSW,248,2.0,3.0,89,0.00,,,0.00,weatherlink.com 1.10,2013-01-05 16:59:00,
2013-01-05 11:14:00,12.5,10.0,30.00,WSW,252,2.0,3.0,88,0.00,,,0.00,weatherlink.com 1.10,2013-01-05 17:14:00,
2013-01-05 11:29:00,13.3,10.0,29.98,WSW,257,3.0,4.0,88,0.00,,,0.00,weatherlink.com 1.10,2013-01-05 17:29:00,
2013-01-05 11:44:00,14.4,11.0,29.98,WSW,252,3.0,5.0,86,0.00,,,0.00,weatherlink.com 1.10,2013-01-05 17:44:00,
2013-01-05 11:59:00,15.3,12.0,29.97,West,262,6.0,7.0,85,0.00,,,0.00,weatherlink.com 1.10,2013-01-05 17:59:00,
2013-01-05 12:14:00,16.5,13.0,29.97,WSW,253,2.0,5.0,84,0.00,,,0.00,weatherlink.com 1.10,2013-01-05 18:14:00,
2013-01-05 12:29:00,17.7,13.0,29.96,WSW,242,2.0,3.0,82,0.00,,,0.00,weatherlink.com 1.10,2013-01-05 18:29:00,
2013-01-05 12:44:00,18.9,14.0,29.95,WSW,246,1.0,2.0,81,0.00,,,0.00,weatherlink.com 1.10,2013-01-05 18:44:00,
2013-01-05 12:59:00,20.4,14.0,29.95,WSW,248,2.0,2.0,77,0.00,,,0.00,weatherlink.com 1.10,2013-01-05 18:59:00,
2013-01-05 13:14:00,20.9,15.0,29.94,SSW,200,1.0,4.0,77,0.00,,,0.00,weatherlink.com 1.10,2013-01-05 19:14:00,
2013-01-05 13:29:00,21.4,14.0,29.93,West,259,2.0,4.0,74,0.00,,,0.00,weatherlink.com 1.10,2013-01-05 19:29:00,
2013-01-05 13:44:00,21.4,14.0,29.93,SW,233,1.0,3.0,74,0.00,,,0.00,weatherlink.com 1.10,2013-01-05 19:44:00,
2013-01-05 13:59:00,22.1,14.0,29.93,WSW,257,3.0,4.0,72,0.00,,,0.00,weatherlink.com 1.10,2013-01-05 19:59:00,
2013-01-05 14:30:00,22.3,14.0,29.93,WSW,251,3.0,4.0,71,0.00,,,0.00,weatherlink.com 1.10,2013-01-05 20:30:00,
2013-01-05 14:45:00,21.9,14.0,29.93,WSW,246,5.0,5.0,72,0.00,,,0.00,weatherlink.com 1.10,2013-01-05 20:45:00,
2013-01-05 15:00:00,22.3,15.0,29.93,SSW,211,2.0,3.0,72,0.00,,,0.00,weatherlink.com 1.10,2013-01-05 21:00:00,
2013-01-05 15:15:00,22.8,15.0,29.94,WNW,295,2.0,5.0,72,0.00,,,0.00,weatherlink.com 1.10,2013-01-05 21:15:00,
2013-01-05 15:30:00,22.9,15.0,29.95,West,268,3.0,5.0,71,0.00,,,0.00,weatherlink.com 1.10,2013-01-05 21:30:00,
2013-01-05 15:45:00,22.0,14.0,29.95,WSW,238,3.0,6.0,72,0.00,,,0.00,weatherlink.com 1.10,2013-01-05 21:45:00,
2013-01-05 16:00:00,21.6,15.0,29.95,WNW,300,2.0,6.0,74,0.00,,,0.00,weatherlink.com 1.10,2013-01-05 22:00:00,
2013-01-05 16:15:00,21.0,14.0,29.96,West,281,1.0,5.0,75,0.00,,,0.00,weatherlink.com 1.10,2013-01-05 22:15:00,
2013-01-05 16:30:00,20.4,14.0,29.97,WNW,297,1.0,6.0,77,0.00,,,0.00,weatherlink.com 1.10,2013-01-05 22:30:00,
2013-01-05 16:45:00,20.1,14.0,29.96,WNW,295,2.0,5.0,78,0.00,,,0.00,weatherlink.com 1.10,2013-01-05 22:45:00,
2013-01-05 17:00:00,19.8,14.0,29.96,NW,317,2.0,5.0,79,0.00,,,0.00,weatherlink.com 1.10,2013-01-05 23:00:00,
2013-01-05 17:15:00,19.5,14.0,29.98,NW,316,2.0,4.0,79,0.00,,,0.00,weatherlink.com 1.10,2013-01-05 23:15:00,
2013-01-05 17:30:00,19.0,14.0,30.00,WNW,296,2.0,8.0,80,0.00,,,0.00,weatherlink.com 1.10,2013-01-05 23:30:00,
2013-01-05 17:45:00,18.6,14.0,30.01,WNW,288,2.0,7.0,82,0.00,,,0.00,weatherlink.com 1.10,2013-01-05 23:45:00,
2013-01-05 18:00:00,18.1,14.0,30.02,WNW,293,2.0,6.0,82,0.00,,,0.00,weatherlink.com 1.10,2013-01-06 00:00:00,
2013-01-05 18:15:00,17.3,13.0,30.02,West,277,3.0,6.0,83,0.00,,,0.00,weatherlink.com 1.10,2013-01-06 00:15:00,
2013-01-05 18:30:00,17.0,13.0,30.02,WNW,284,3.0,6.0,84,0.00,,,0.00,weatherlink.com 1.10,2013-01-06 00:30:00,
2013-01-05 18:45:00,17.0,13.0,30.03,West,261,1.0,6.0,84,0.00,,,0.00,weatherlink.com 1.10,2013-01-06 00:45:00,
2013-01-05 19:00:00,17.1,13.0,30.04,West,278,1.0,6.0,85,0.00,,,0.00,weatherlink.com 1.10,2013-01-06 01:00:00,
2013-01-05 19:15:00,17.3,14.0,30.05,WNW,284,3.0,6.0,85,0.00,,,0.00,weatherlink.com 1.10,2013-01-06 01:15:00,
2013-01-05 19:30:00,17.5,14.0,30.05,WNW,290,3.0,7.0,85,0.00,,,0.00,weatherlink.com 1.10,2013-01-06 01:30:00,
2013-01-05 19:45:00,17.5,14.0,30.05,WNW,297,1.0,3.0,85,0.00,,,0.00,weatherlink.com 1.10,2013-01-06 01:45:00,
2013-01-05 20:00:00,17.4,14.0,30.06,West,262,1.0,5.0,85,0.00,,,0.00,weatherlink.com 1.10,2013-01-06 02:00:00,
2013-01-05 20:15:00,16.3,13.0,30.06,West,262,3.0,7.0,86,0.00,,,0.00,weatherlink.com 1.10,2013-01-06 02:15:00,
2013-01-05 20:30:00,15.4,12.0,30.06,West,273,6.0,7.0,87,0.00,,,0.00,weatherlink.com 1.10,2013-01-06 02:30:00,
2013-01-05 20:45:00,14.8,12.0,30.06,WSW,256,5.0,7.0,87,0.00,,,0.00,weatherlink.com 1.10,2013-01-06 02:45:00,
2013-01-05 21:00:00,14.4,11.0,30.06,West,271,5.0,7.0,87,0.00,,,0.00,weatherlink.com 1.10,2013-01-06 03:00:00,
2013-01-05 21:15:00,13.9,11.0,30.07,West,266,7.0,11.0,87,0.00,,,0.00,weatherlink.com 1.10,2013-01-06 03:15:00,
2013-01-05 21:30:00,13.2,10.0,30.08,SW,215,6.0,12.0,87,0.00,,,0.00,weatherlink.com 1.10,2013-01-06 03:30:00,
2013-01-05 21:45:00,12.8,10.0,30.10,WNW,284,5.0,9.0,87,0.00,,,0.00,weatherlink.com 1.10,2013-01-06 03:45:00,
2013-01-05 22:00:00,12.7,10.0,30.10,West,278,4.0,9.0,88,0.00,,,0.00,weatherlink.com 1.10,2013-01-06 04:00:00,
2013-01-05 22:15:00,13.0,10.0,30.11,West,269,2.0,9.0,88,0.00,,,0.00,weatherlink.com 1.10,2013-01-06 04:15:00,
2013-01-05 22:30:00,13.3,10.0,30.11,West,280,3.0,8.0,88,0.00,,,0.00,weatherlink.com 1.10,2013-01-06 04:30:00,
2013-01-05 22:45:00,12.9,10.0,30.11,West,279,3.0,4.0,88,0.00,,,0.00,weatherlink.com 1.10,2013-01-06 04:45:00,
2013-01-05 23:00:00,12.7,10.0,30.12,West,262,3.0,8.0,89,0.00,,,0.00,weatherlink.com 1.10,2013-01-06 05:00:00,
2013-01-05 23:16:00,13.4,11.0,30.12,West,266,3.0,9.0,89,0.00,,,0.00,weatherlink.com 1.10,2013-01-06 05:16:00,
2013-01-05 23:30:00,13.8,11.0,30.12,West,269,3.0,8.0,89,0.00,,,0.00,weatherlink.com 1.10,2013-01-06 05:30:00,
2013-01-05 23:45:00,13.6,11.0,30.12,WNW,296,7.0,8.0,89,0.00,,,0.00,weatherlink.com 1.10,2013-01-06 05:45:00,